SCP
0 1 1 1 1 1 1 1 1 1 0 0 1 1 1 1 1 1 1 2 3 3 4 4 4 3 2 2 2 2 2 2 2 2 2 1 1 1 1 1 1 1 1
1 1 1 1 1 1 1 1 1 1 0 1 1 1 1 1 1 1 1 2 2 3 4 5 4 4 3 2 2 2 2 2 2 2 2 2 2 2 1 1 1 1 1
1 1 1 1 1 1 1 1 1 1 1 1 1 1 1 1 1 1 1 1 2 3 5 5 5 5 4 3 2 2 2 2 2 2 2 2 2 2 2 1 1 1 1
2 2 2 2 2 2 2 2 1 1 1 1 1 1 1 1 1 1 1 1 2 3 4 5 5 5 4 4 3 2 2 2 3 3 3 2 2 1 1 1 1 1 1
2 2 2 2 2 3 3 2 2 2 1 1 1 1 1 1 1 1 1 1 1 2 2 3 4 4 4 4 3 3 2 3 3 3 3 2 2 2 1 1 1 1 1
2 2 3 3 3 3 3 3 2 2 2 2 2 1 1 1 1 1 1 1 1 1 1 2 2 3 4 4 3 3 3 3 3 3 2 2 2 2 2 2 2 1 1
2 3 3 3 3 3 3 3 3 2 2 2 2 1 1 1 1 1 1 1 1 1 1 1 1 2 2 2 2 2 2 2 2 2 2 2 2 2 2 2 2 2 1
3 3 3 3 2 2 3 3 3 3 2 2 2 1 1 1 1 0 0 1 1 1 1 1 1 1 1 1 1 2 2 2 2 2 2 2 2 2 3 3 2 2 1
3 3 3 2 2 2 2 2 2 3 3 3 3 2 1 1 0 0 0 0 0 0 0 0 0 0 0 0 1 1 1 1 1 1 2 2 2 2 2 2 2 1 1
2 2 2 2 2 1 1 1 2 2 3 3 3 2 1 1 0 0 0 0 0 0 0 0 0 0 0 0 0 0 0 0 0 1 1 1 1 1 1 1 1 1 1
1 2 2 2 2 2 2 2 1 1 2 3 3 2 1 0 0 0 0 0 0 0 0 0 0 0 0 0 0 0 0 0 0 0 0 0 1 1 1 1 1 0 0
1 1 1 1 2 2 2 2 2 1 1 2 2 2 1 1 0 0 0 0 0 0 0 0 0 0 0 0 0 0 0 0 0 0 0 0 0 1 1 1 1 0 0
0 0 0 0 1 1 1 1 1 1 1 1 1 1 1 0 0 0 0 0 0 0 0 0 0 0 0 0 0 0 0 0 0 0 0 0 0 0 0 1 0 0 0
0 0 0 0 0 0 0 1 1 1 1 0 0 0 0 0 0 0 0 0 0 0 0 0 0 0 0 0 0 0 0 0 0 0 0 0 0 0 0 0 0 0 0
0 0 0 0 0 0 0 0 0 0 0 0 0 0 0 0 0 0 0 0 0 0 0 0 0 0 0 0 0 0 0 0 0 0 0 0 0 0 0 0 0 0 0
0 0 0 0 0 0 0 0 0 0 0 0 0 0 0 0 0 0 0 0 0 0 0 0 0 0 0 0 0 0 0 0 0 0 0 0 0 0 0 0 0 0 0
0 0 0 0 0 0 0 0 0 0 0 0 0 0 0 0 0 0 0 0 0 0 0 0 0 0 0 0 0 0 0 0 0 0 0 0 0 0 0 0 0 0 0
0 0 0 0 0 0 0 0 0 0 0 0 0 0 0 0 0 0 0 0 0 0 0 0 0 0 0 0 0 0 0 0 0 0 0 0 0 0 0 0 0 0 0
0 0 0 0 0 0 0 0 0 0 0 0 0 0 0 0 0 0 0 0 0 0 0 0 0 0 0 0 0 0 0 0 0 0 0 0 0 0 0 0 0 0 0
0 0 0 0 0 0 0 0 0 0 0 0 0 0 0 0 0 0 0 0 0 0 0 0 0 0 0 0 0 0 0 0 0 0 0 0 0 0 0 0 0 0 0
0 0 0 0 0 0 0 0 0 0 0 0 0 0 0 0 0 0 0 0 0 0 0 0 0 0 0 0 0 0 0 0 0 0 0 0 0 0 0 0 0 0 0
0 0 0 0 0 0 0 0 0 0 0 0 0 0 0 0 0 0 0 0 0 0 0 0 0 0 0 0 0 0 0 0 0 0 0 0 0 0 0 0 0 0 0
0 0 0 0 0 0 0 0 0 0 0 0 0 0 0 0 0 0 0 0 0 0 0 0 0 0 0 0 0 0 0 0 0 0 0 0 0 0 0 0 0 0 0
0 0 0 0 0 0 0 0 0 0 0 0 0 0 0 0 0 0 0 0 0 0 0 0 0 0 0 0 0 0 0 0 0 0 0 0 0 0 0 0 0 0 0
0 0 0 0 0 0 0 0 0 0 0 0 0 0 0 0 0 0 0 0 0 0 0 0 0 0 0 0 0 0 0 0 0 0 0 0 0 0 0 0 0 0 0
0 0 0 0 0 0 0 0 0 0 0 0 0 0 0 0 0 0 0 0 0 0 0 0 0 0 0 0 0 0 0 0 0 0 0 0 0 0 0 0 0 0 0
Wind_Speed
5 4 4 3 3 3 3 3 3 3 3 3 3 3 3 3 3 2 2 9 10 10 11 11 11 10 10 11 10 10 10 11 11 10 10 10 9 9 9 8 8 8 8
5 4 4 4 4 4 4 3 3 3 2 2 2 2 2 1 2 2 1 3 6 7 7 7 8 9 10 10 9 9 9 9 10 10 10 9 9 9 9 9 9 9 9
5 5 4 4 4 3 3 2 2 2 1 1 1 1 1 1 2 2 1 1 1 4 5 5 5 5 6 6 6 6 6 7 7 7 8 8 8 8 8 9 9 9 9
5 5 4 4 4 3 2 2 1 1 1 1 0 0 1 1 2 2 2 1 1 0 2 3 3 3 3 3 4 4 4 5 5 5 6 6 6 6 7 8 8 9 9
4 4 3 3 3 3 2 2 1 1 1 1 0 1 1 1 1 3 3 3 2 1 0 0 2 2 1 1 2 3 3 3 3 4 4 4 4 4 5 6 6 7 9
3 3 2 2 2 2 2 1 2 1 1 1 1 2 2 2 2 2 2 2 2 2 1 2 1 2 3 3 2 1 1 1 0 0 1 1 1 2 3 4 5 6 7
3 3 3 2 2 2 2 2 2 2 1 1 2 2 2 3 3 2 2 3 3 3 3 3 2 2 2 5 6 5 5 5 5 4 4 3 3 3 3 3 5 6 7
5 4 4 3 2 2 2 2 2 2 1 2 2 2 1 2 3 3 3 3 3 3 3 4 3 3 3 2 5 7 6 6 6 6 7 7 6 6 6 6 6 7 7
7 7 5 5 4 4 3 3 3 2 2 2 3 2 2 2 0 2 3 4 3 3 3 3 4 4 4 3 3 6 8 8 7 7 7 7 7 7 8 8 8 8 8
8 8 8 7 7 6 6 5 4 3 2 2 2 3 2 2 2 1 2 2 3 4 4 4 4 4 4 3 4 7 8 8 8 8 8 7 7 7 8 9 9 9 9
9 9 9 8 8 7 7 7 6 6 4 3 2 2 2 3 2 2 1 2 2 2 3 3 3 3 3 3 2 4 6 6 5 5 6 6 7 7 7 8 9 10 11
7 9 9 8 8 7 7 7 7 7 6 6 5 4 2 2 1 2 1 0 1 2 2 3 2 2 2 2 2 4 5 4 4 5 6 7 8 8 8 9 9 10 11
6 8 8 8 7 7 6 7 7 7 7 7 5 4 4 4 2 1 2 1 1 2 2 2 2 1 1 1 1 3 4 5 5 6 7 8 9 9 10 10 10 10 11
6 7 8 8 8 8 7 7 7 7 7 7 7 6 5 5 4 3 2 2 2 2 2 3 2 2 2 1 2 4 3 7 7 7 8 8 9 10 10 11 11 10 10
6 8 8 8 8 8 8 8 7 7 6 6 6 6 5 4 4 4 3 2 3 2 2 2 2 3 2 2 3 3 3 7 9 9 9 9 9 10 10 11 10 10 10
6 7 8 8 8 8 8 7 6 6 7 6 5 6 6 4 4 4 4 3 3 2 1 2 2 2 2 3 5 3 4 9 9 10 9 9 9 9 10 11 10 10 11
7 7 7 8 8 8 7 6 6 6 7 6 6 6 6 5 4 4 4 4 4 3 2 2 2 2 3 3 4 4 4 4 5 10 10 9 8 9 9 10 10 10 11
7 7 7 8 8 8 7 7 6 6 6 6 5 6 5 5 5 4 4 4 3 2 2 1 2 2 3 3 4 4 4 4 4 9 10 9 10 9 9 9 9 9 10
7 7 7 8 7 7 7 7 6 5 5 4 4 4 4 5 5 4 4 4 2 2 1 1 2 2 2 2 3 4 5 4 5 7 8 8 9 10 10 10 10 9 9
6 6 6 6 6 7 7 6 6 6 5 5 4 3 3 3 3 3 3 3 2 3 2 1 2 2 2 3 2 3 4 4 5 5 6 7 9 10 11 10 10 9 8
6 5 6 6 5 5 6 6 5 5 5 5 5 4 2 3 4 3 2 2 2 2 2 2 2 2 3 3 3 2 3 4 5 2 3 5 4 4 6 8 9 9 8
5 5 5 5 5 5 7 8 5 4 4 4 4 3 3 4 6 8 8 6 4 1 1 1 2 2 4 3 3 2 2 3 4 3 2 5 3 3 4 4 7 9 8
4 4 4 4 4 5 8 9 9 4 3 3 2 2 2 3 5 5 7 8 8 7 3 2 2 4 4 4 3 3 2 2 4 4 2 4 3 4 4 5 8 9 8
3 2 2 3 3 5 8 9 9 6 4 4 3 1 1 2 3 4 5 5 5 5 5 2 4 6 6 5 4 3 3 3 5 4 1 2 3 3 4 4 7 9 9
2 1 2 2 2 3 7 9 8 4 4 5 4 3 1 1 4 5 4 5 6 6 6 7 7 7 9 9 4 1 2 1 3 4 1 1 3 3 4 4 5 8 9
2 2 2 1 1 1 5 8 7 3 4 4 4 4 4 4 6 6 3 3 5 6 7 9 9 9 6 6 5 3 3 2 2 3 3 1 2 2 4 4 3 4 5
Wind_Direction
182 186 191 188 195 195 199 205 213 218 230 244 242 232 224 214 204 208 219 203 198 200 201 203 204 202 202 210 211 211 210 210 208 205 203 203 203 201 200 199 198 200 201
181 180 184 187 194 196 200 200 199 204 222 229 242 222 194 200 177 168 184 195 194 200 204 205 209 210 210 211 209 213 215 215 212 209 206 206 206 204 203 203 203 204 202
178 177 179 185 194 192 186 180 186 188 200 211 247 214 140 123 135 152 163 182 194 204 198 201 199 202 208 211 208 207 205 203 206 208 208 206 207 206 205 206 206 206 204
174 169 172 180 177 163 156 160 171 174 196 188 248 4 84 97 115 128 116 102 96 162 203 198 183 171 186 209 214 214 211 204 200 205 210 207 207 208 207 207 207 208 208
170 162 165 170 157 142 146 169 154 161 163 202 177 84 77 94 101 96 92 93 98 94 33 117 108 102 119 214 229 220 213 206 205 208 214 216 217 213 214 212 212 213 215
144 140 137 141 134 126 129 134 129 104 114 146 100 75 63 80 84 82 90 87 94 93 77 72 61 58 70 70 59 74 94 88 71 83 265 259 255 245 240 233 225 226 227
86 112 116 108 111 119 133 134 123 90 54 57 87 61 42 48 60 51 57 63 62 64 66 66 63 53 51 63 57 58 53 46 42 34 23 17 10 356 332 302 261 245 241
62 76 83 88 88 94 73 59 80 107 55 42 98 112 65 19 39 46 47 56 50 44 55 58 67 72 62 50 57 62 52 41 37 30 22 18 12 352 337 325 311 283 266
61 65 66 74 65 70 69 54 49 100 115 50 53 119 142 187 88 27 37 40 36 36 36 48 64 69 73 61 53 51 51 41 31 21 12 6 356 343 336 325 311 305 289
56 59 62 64 63 60 57 52 49 49 90 87 47 40 75 121 138 119 16 25 45 46 37 45 53 63 72 66 63 61 51 40 30 19 13 7 358 347 335 325 321 315 310
54 56 61 64 63 61 60 56 52 51 58 71 65 48 42 40 53 110 88 351 18 32 45 49 51 56 60 54 44 48 44 34 21 4 353 345 337 328 321 317 314 311 309
57 55 61 63 65 64 61 61 61 59 57 66 65 61 68 74 53 80 103 50 16 3 30 39 43 44 44 44 27 29 22 10 353 334 323 318 317 317 315 312 309 307 306
61 54 59 61 61 60 59 62 64 60 55 60 60 59 55 51 55 78 96 81 47 3 16 20 23 21 22 23 342 346 348 340 329 315 310 306 305 306 303 301 302 303 303
68 63 63 61 60 60 59 58 61 59 57 57 58 57 58 45 43 48 79 102 71 17 18 359 350 7 2 338 311 325 323 322 319 313 309 303 301 303 302 301 302 303 302
74 65 63 60 55 55 54 58 60 56 56 55 56 57 56 45 42 39 47 71 110 80 0 335 338 339 339 327 333 336 318 318 321 318 314 306 300 298 296 293 292 291 293
68 67 63 61 57 54 53 57 57 54 56 47 50 54 49 40 39 35 40 46 65 109 75 310 303 306 323 343 347 338 314 325 323 320 319 312 302 298 295 292 292 291 291
65 65 62 59 56 50 47 52 56 58 59 51 48 53 47 43 39 31 36 43 49 72 78 313 305 319 341 337 334 331 321 319 316 319 320 320 313 305 299 294 291 291 291
61 62 63 60 57 51 45 46 50 51 57 55 48 49 41 44 41 31 36 38 38 50 84 351 320 323 322 321 326 326 328 329 312 312 318 318 320 318 312 302 292 287 284
67 63 63 60 52 47 42 38 41 42 45 48 51 54 48 53 42 33 35 30 15 21 50 40 309 303 303 319 333 325 325 318 318 316 318 320 322 321 316 308 299 291 285
74 69 66 63 57 48 40 32 33 34 29 28 34 49 59 65 54 33 28 14 9 10 9 3 319 312 305 309 333 325 327 324 316 315 323 321 318 321 317 313 305 295 287
82 78 71 60 51 47 34 32 27 31 25 19 17 25 47 61 49 28 14 349 359 360 352 354 332 330 320 327 323 307 310 311 306 303 319 313 315 313 311 310 307 299 294
76 77 70 63 50 38 25 29 30 27 21 19 11 11 38 44 28 16 7 1 355 333 316 317 307 310 294 288 287 293 303 331 314 304 326 303 311 303 299 292 294 299 300
86 82 77 73 56 21 21 19 22 33 22 12 6 11 28 36 20 2 353 356 351 344 326 215 254 272 269 270 281 294 285 274 266 276 322 295 306 300 295 302 306 306 306
96 97 90 78 54 20 18 19 25 33 28 16 11 34 58 5 358 355 348 347 336 327 314 288 245 259 260 260 236 235 256 284 280 276 221 278 300 299 305 310 312 314 314
91 108 124 107 61 6 11 22 32 24 21 11 7 16 25 348 335 354 358 344 334 324 322 325 307 291 284 281 260 224 289 326 316 302 284 253 290 306 309 307 313 324 322
114 114 111 121 99 9 5 21 29 26 17 359 351 348 341 324 325 336 330 325 323 313 324 331 331 329 322 312 300 214 210 218 267 290 281 280 292 329 322 303 305 320 327